TimeCDT,TemperatureF,Dew PointF,Humidity,Sea Level PressureIn,VisibilityMPH,Wind Direction,Wind SpeedMPH,Gust SpeedMPH,PrecipitationIn,Events,Conditions,WindDirDegrees,DateUTC
12:15 AM,51.8,48.2,88,30.00,10.0,NNW,3.5,-,N/A,,Overcast,330,2013-04-23 05:15:00
12:35 AM,51.8,48.2,88,30.00,10.0,NNW,3.5,-,N/A,,Overcast,340,2013-04-23 05:35:00
12:55 AM,51.8,48.2,88,29.99,10.0,Calm,Calm,-,N/A,,Overcast,0,2013-04-23 05:55:00
1:15 AM,51.8,48.2,88,30.00,10.0,Calm,Calm,-,N/A,,Mostly Cloudy,0,2013-04-23 06:15:00
1:35 AM,51.8,48.2,88,30.00,10.0,West,3.5,-,N/A,,Overcast,280,2013-04-23 06:35:00
1:55 AM,50.0,48.2,94,30.02,10.0,West,6.9,-,N/A,,Overcast,270,2013-04-23 06:55:00
2:15 AM,51.8,50.0,94,30.02,10.0,WNW,8.1,-,N/A,,Overcast,290,2013-04-23 07:15:00
2:35 AM,51.8,48.2,88,30.01,10.0,WNW,18.4,-,N/A,,Overcast,290,2013-04-23 07:35:00
2:55 AM,48.2,44.6,87,30.00,10.0,NW,11.5,-,N/A,,Overcast,310,2013-04-23 07:55:00
3:15 AM,46.4,44.6,93,29.99,10.0,NW,18.4,23.0,N/A,,Overcast,310,2013-04-23 08:15:00
3:35 AM,44.6,44.6,100,30.02,10.0,WNW,17.3,-,N/A,,Overcast,300,2013-04-23 08:35:00
3:55 AM,42.8,41.0,93,30.00,10.0,NW,16.1,26.5,N/A,,Overcast,320,2013-04-23 08:55:00
4:15 AM,41.0,39.2,93,30.01,10.0,NW,15.0,18.4,N/A,,Light Drizzle,320,2013-04-23 09:15:00
4:35 AM,39.2,37.4,93,30.02,10.0,NW,17.3,-,N/A,,Overcast,310,2013-04-23 09:35:00
4:55 AM,39.2,37.4,93,30.05,10.0,NW,19.6,24.2,N/A,,Overcast,310,2013-04-23 09:55:00
5:15 AM,39.2,37.4,93,30.05,10.0,NW,17.3,-,N/A,,Overcast,320,2013-04-23 10:15:00
5:35 AM,39.2,35.6,87,30.04,10.0,NW,13.8,23.0,N/A,,Overcast,320,2013-04-23 10:35:00
5:55 AM,37.4,35.6,93,30.04,10.0,NNW,15.0,20.7,N/A,,Overcast,330,2013-04-23 10:55:00
6:15 AM,37.4,35.6,93,30.03,10.0,NNW,18.4,25.3,N/A,,Overcast,330,2013-04-23 11:15:00
6:35 AM,37.4,35.6,93,30.04,10.0,NW,16.1,-,N/A,,Overcast,320,2013-04-23 11:35:00
6:55 AM,37.4,35.6,93,30.05,10.0,NNW,16.1,21.9,N/A,,Overcast,340,2013-04-23 11:55:00
7:15 AM,37.4,35.6,93,30.05,10.0,NNW,12.7,23.0,N/A,,Overcast,330,2013-04-23 12:15:00
7:35 AM,37.4,33.8,87,30.05,10.0,NNW,15.0,23.0,N/A,,Overcast,340,2013-04-23 12:35:00
7:55 AM,37.4,33.8,87,30.05,10.0,NNW,16.1,-,N/A,,Overcast,330,2013-04-23 12:55:00
8:15 AM,37.4,33.8,87,30.05,10.0,NNW,16.1,19.6,N/A,,Light Drizzle,330,2013-04-23 13:15:00
8:35 AM,37.4,33.8,87,30.04,10.0,NNW,16.1,-,N/A,Rain,Light Rain,340,2013-04-23 13:35:00
8:55 AM,37.4,35.6,93,30.05,10.0,NNW,15.0,-,N/A,,Light Drizzle,340,2013-04-23 13:55:00
9:15 AM,37.4,35.6,93,30.06,7.0,NNW,15.0,-,N/A,Rain,Light Rain,330,2013-04-23 14:15:00
9:35 AM,37.4,35.6,93,30.06,5.0,NNW,16.1,20.7,0.02,Rain,Light Rain,330,2013-04-23 14:35:00
9:55 AM,37.4,35.6,93,30.05,5.0,NNW,17.3,24.2,0.05,Snow,Light Snow,330,2013-04-23 14:55:00
10:15 AM,37.4,35.6,93,30.06,7.0,NNW,16.1,23.0,0.02,Rain,Rain,330,2013-04-23 15:15:00
10:35 AM,35.6,35.6,100,30.07,5.0,NNW,15.0,18.4,0.04,Rain,Rain,330,2013-04-23 15:35:00
10:55 AM,35.6,35.6,100,30.06,5.0,NNW,13.8,19.6,0.07,,Overcast,330,2013-04-23 15:55:00
11:15 AM,35.6,35.6,100,30.06,5.0,NNW,12.7,18.4,0.03,Rain,Light Rain,330,2013-04-23 16:15:00
11:35 AM,35.6,35.6,100,30.06,7.0,NNW,15.0,19.6,0.05,Rain,Light Rain,340,2013-04-23 16:35:00
11:55 AM,37.4,37.4,100,30.06,10.0,NNW,16.1,20.7,0.06,Rain,Light Rain,330,2013-04-23 16:55:00
12:15 PM,37.4,35.6,93,30.05,10.0,NNW,16.1,20.7,0.01,Rain,Light Rain,340,2013-04-23 17:15:00
12:35 PM,37.4,37.4,100,30.05,10.0,NNW,16.1,-,0.02,Rain,Rain,340,2013-04-23 17:35:00
12:55 PM,37.4,35.6,93,30.04,10.0,NNW,16.1,19.6,0.02,,Light Drizzle,340,2013-04-23 17:55:00
1:15 PM,37.4,35.6,93,30.04,10.0,NNW,17.3,-,N/A,Rain,Light Rain,340,2013-04-23 18:15:00
1:35 PM,37.4,35.6,93,30.03,10.0,North,16.1,23.0,N/A,Rain,Light Rain,350,2013-04-23 18:35:00
1:55 PM,39.2,35.6,87,30.03,10.0,North,15.0,18.4,N/A,Rain,Light Rain,350,2013-04-23 18:55:00
2:15 PM,39.2,35.6,87,30.03,10.0,North,16.1,20.7,N/A,,Light Drizzle,350,2013-04-23 19:15:00
2:35 PM,39.2,35.6,87,30.04,10.0,NNW,15.0,-,N/A,,Overcast,330,2013-04-23 19:35:00
2:55 PM,39.2,35.6,87,30.03,10.0,NNW,20.7,24.2,N/A,,Light Drizzle,340,2013-04-23 19:55:00
3:15 PM,39.2,35.6,87,30.03,10.0,NNW,17.3,-,N/A,,Light Drizzle,340,2013-04-23 20:15:00
3:35 PM,39.2,35.6,87,30.02,10.0,NNW,16.1,21.9,N/A,,Light Drizzle,330,2013-04-23 20:35:00
3:55 PM,39.2,35.6,87,30.02,10.0,NNW,17.3,-,0.01,,Light Drizzle,340,2013-04-23 20:55:00
4:15 PM,39.2,35.6,87,30.03,10.0,NNW,16.1,-,N/A,Rain,Light Rain,330,2013-04-23 21:15:00
4:35 PM,39.2,35.6,87,30.02,10.0,NNW,15.0,21.9,N/A,,Overcast,340,2013-04-23 21:35:00
4:55 PM,39.2,35.6,87,30.02,10.0,NNW,17.3,-,N/A,,Overcast,340,2013-04-23 21:55:00
5:15 PM,39.2,35.6,87,30.02,10.0,NNW,17.3,23.0,N/A,,Light Drizzle,340,2013-04-23 22:15:00
5:35 PM,39.2,35.6,87,30.02,10.0,NNW,15.0,-,N/A,,Light Drizzle,340,2013-04-23 22:35:00
5:55 PM,39.2,35.6,87,30.02,10.0,NNW,9.2,18.4,N/A,Rain,Light Rain,340,2013-04-23 22:55:00
6:15 PM,39.2,35.6,87,30.02,10.0,NNW,11.5,-,N/A,,Mostly Cloudy,330,2013-04-23 23:15:00
6:35 PM,39.2,35.6,87,30.02,10.0,North,15.0,-,N/A,,Scattered Clouds,350,2013-04-23 23:35:00
6:55 PM,39.2,35.6,87,30.03,10.0,NNW,10.4,-,N/A,,Mostly Cloudy,330,2013-04-23 23:55:00
7:15 PM,39.2,33.8,81,30.02,10.0,NNW,12.7,-,N/A,,Overcast,340,2013-04-24 00:15:00
7:35 PM,39.2,33.8,81,30.03,10.0,NNW,11.5,-,N/A,,Overcast,330,2013-04-24 00:35:00
7:55 PM,39.2,33.8,81,30.03,10.0,NNW,11.5,-,N/A,,Overcast,340,2013-04-24 00:55:00
8:15 PM,39.2,33.8,81,30.04,10.0,NNW,11.5,-,N/A,,Overcast,330,2013-04-24 01:15:00
8:35 PM,39.2,33.8,81,30.04,10.0,NNW,11.5,-,N/A,,Overcast,340,2013-04-24 01:35:00
8:55 PM,39.2,33.8,81,30.04,10.0,NNW,12.7,17.3,N/A,,Overcast,340,2013-04-24 01:55:00
9:15 PM,39.2,33.8,81,30.05,10.0,NNW,10.4,-,N/A,,Overcast,340,2013-04-24 02:15:00
9:35 PM,39.2,33.8,81,30.05,10.0,NNW,10.4,-,N/A,,Mostly Cloudy,340,2013-04-24 02:35:00
9:55 PM,39.2,33.8,81,30.05,10.0,NNW,9.2,-,N/A,,Mostly Cloudy,340,2013-04-24 02:55:00
10:15 PM,39.2,33.8,81,30.06,10.0,NNW,6.9,-,N/A,,Overcast,330,2013-04-24 03:15:00
10:35 PM,39.2,33.8,81,30.07,10.0,NW,10.4,-,N/A,,Overcast,320,2013-04-24 03:35:00
10:55 PM,39.2,33.8,81,30.07,10.0,NW,9.2,-,N/A,,Overcast,320,2013-04-24 03:55:00
11:15 PM,39.2,33.8,81,30.08,10.0,NW,10.4,-,N/A,,Overcast,320,2013-04-24 04:15:00
11:55 PM,37.4,32.0,81,30.07,10.0,NW,10.4,-,N/A,,Overcast,320,2013-04-24 04:55:00